Hourly Data Report for January 10, 2021

TORONTO CITY
ONTARIO
Current Station Operator: ECCC - MSC

43°40'00.000" N
79°24'00.000" W
112.50 m
6158355
71508
XTO

Download Data

Hourly Data (January 2021)
Hourly Data Report for January 10, 2021
TIME
LST
Temp Definition
°C
Dew Point Definition
°C
Rel Hum Definition
%
Precip. Amount Definition
mm

Wind Dir Definition
10's deg

Wind Spd Definition
km/h
Visibility Definition
km
Stn Press Definition
kPa
Hmdx Definition


Wind Chill Definition


Weather Definition


00:00 -0.8 -4.0 79 0.0       100.90     LegendNANA
01:00 -1.0 -3.9 81 0.0       100.90     LegendNANA
02:00 -1.0 -3.6 82 0.0       100.94     LegendNANA
03:00 -1.1 -3.7 82 0.0       100.97     LegendNANA
04:00 -1.1 -3.6 83 0.0       101.02     LegendNANA
05:00 -1.0 -3.6 83 0.0       101.03     LegendNANA
06:00 -0.9 -3.5 82 0.0       101.04     LegendNANA
07:00 -0.9 -3.8 81 0.0       101.11     LegendNANA
08:00 -0.9 -4.0 79 0.0       101.15     LegendNANA
09:00 -0.2 -3.8 77 0.0       101.22     LegendNANA
10:00 0.1 -3.9 75 0.0       101.28     LegendNANA
11:00 0.1 -3.6 76 0.0       101.27     LegendNANA
12:00 0.2 -3.6 76 0.0       101.18     LegendNANA
13:00 0.6 -3.3 75 0.0       101.14     LegendNANA
14:00 0.7 -2.6 78 0.0       101.14     LegendNANA
15:00 1.4 -2.6 75 0.0       101.13     LegendNANA
16:00 1.9 -3.2 69 0.0       101.13     LegendNANA
17:00 1.3 -4.5 65 0.0       101.15     LegendNANA
18:00 0.7 -4.6 67 0.0       101.20     LegendNANA
19:00 0.2 -4.6 70 0.0       101.21     LegendNANA
20:00 0.0 -4.4 72 0.0       101.21     LegendNANA
21:00 -0.4 -4.6 73 0.0       101.18     LegendNANA
22:00 -1.0 -4.7 76 0.0       101.16     LegendNANA
23:00 -1.4 -5.2 76 0.0       101.19     LegendNANA

Notes on Data Quality.

Legend

  • E = Estimated
  • M = Missing
  • NA = Not Available*
  • [empty] = Indicates an unobserved value
Date modified: